Regional Weather Roundup
Issued by NWS

Home | Current Version | Previous Version | Graphics & Text | Print | Product List | Glossary On
Versions: 1 2 3 4 5 6 7 8 9 10 11 12 13 14 15 16 17 18 19 20 21 22 23 24 25 26 27 28 29 30 31 32 33 34 35 36 37 38 39 40 41 42 43 44 45 46 47 48 49 50
000
ASUS43 KLOT 030906
RWRIL

ILLINOIS REGIONAL WEATHER ROUNDUP
NATIONAL WEATHER SERVICE CHICAGO/ROMEOVILLE IL
300 AM CST TUE MAR 03 2015

NOTE: "FAIR" INDICATES FEW OR NO CLOUDS BELOW 12,000 FEET WITH NO
SIGNIFICANT WEATHER AND/OR OBSTRUCTIONS TO VISIBILITY.

* THESE STATIONS ARE NOT UNDER NWS QUALITY CONTROL. THEY ALSO MAY NOT
  REPORT WEATHER SUCH AS PRECIPITATION OR FOG.

ILZ001-002-007-009-015-016-024-031000-
NORTHWEST ILLINOIS

CITY           SKY/WX    TMP DP  RH WIND       PRES   REMARKS
MOLINE         CLOUDY    26  21  81 SE13      30.01F HAZE    WCI  15
STERLING*      CLOUDY    25  19  80 SE10G16   30.04F WCI  15
SAVANNA*       LGT SNOW  26  19  75 SE15      30.04F WCI  14
$$

ILZ003-004-008-010-011-017-018-031000-
NORTH CENTRAL ILLINOIS

CITY           SKY/WX    TMP DP  RH WIND       PRES   REMARKS
ROCKFORD       CLOUDY    25  16  68 SE10      30.07F WCI  15
FREEPORT*      CLOUDY    24  18  77 SE14      30.05F WCI  12
ROCHELLE*      CLOUDY    24  18  78 SE15      30.05F WCI  11
DE KALB*       CLOUDY    23  17  78 SE15      30.06F WCI  10
PERU*          MIX PCPN  27  19  72 SE13G18   30.06F WCI  17
$$

ILZ005-006-012>014-019>023-031000-
NORTHEAST ILLINOIS

CITY           SKY/WX    TMP DP  RH WIND       PRES   REMARKS
CHICAGO-OHARE  CLOUDY    26  17  68 SE9       30.08F WCI  17
CHICAGO-MIDWAY FLURRIES  28  17  63 SE9       30.10F WCI  19
AURORA         CLOUDY    26  17  68 SE9       30.09F WCI  17
LANSING*       CLOUDY    26  17  66 SE9       30.13F WCI  17
JOLIET*        CLOUDY    26  18  72 SE7       30.11F WCI  18
WAUKEGAN       CLOUDY    27  18  69 SE9       30.08F WCI  18
DUPAGE AIRPORT CLOUDY    26  16  65 S9        30.08F WCI  17
KANKAKEE*      CLOUDY    26  20  79 SE9       30.13F WCI  17
WHEELING       CLOUDY    27  16  63 SE7       30.10F WCI  19
MORRIS*        MIX PCPN  27  20  75 SE10      30.09F WCI  18
ROMEOVILLE*    CLOUDY    27  17  66 SE14      30.08F WCI  15
NORTHERLY ISL    N/A     27  19  72 SE12        N/A  WCI  17
$$

LMZ740>746-031000-
SOUTHERN LAKE MICHIGAN

STATION/POSITION SKY/WX   TEMP    WIND        PRES    VSBY  WAVE
                          AIR SEA DIR/SP/G                  HT/PER
                          (F)     (DEG/KT/KT) (MB)    (MI)  (FT/S)
WAUKEGAN HARBOR            28     160/ 24/ 50   N/A
HARRISON CRIB              27     150/ 15/ 21   N/A
BURNHAM HARBOR             27     130/ 12       N/A
CALUMET HARBOR             27     130/  6/ 10 1018.5
MICHIGAN CITY              26     120/  9/ 12   N/A
$$

ILZ025>027-034>036-040-047-049-050-058-095>099-031000-
WEST-CENTRAL ILLINOIS

CITY           SKY/WX    TMP DP  RH WIND       PRES   REMARKS
QUINCY         CLOUDY    28  24  85 SE12      29.97F FOG     WCI  18
GALESBURG*     MIX PCPN  27  24  88 SE8       30.02F WCI  19
MACOMB*        LGT RAIN  29  26  88 SE10      30.03F WCI  19
JACKSONVILLE*  CLOUDY    31  24  75 SE8       30.03F WCI  23
PITTSFIELD*    CLOUDY    29  25  82 SE6       30.02F WCI  23
$$

ILZ028>032-037-038-041>044-048-051>054-059>061-031000-
CENTRAL ILLINOIS

CITY           SKY/WX    TMP DP  RH WIND       PRES   REMARKS
PONTIAC        MIX PCPN  28  24  84 SE14      30.09F WCI  17
BLOOMINGTON    LGT SNOW  28  23  81 SE14      30.03F WCI  17
DECATUR        CLOUDY    29  22  75 SE13      30.04F WCI  19
PEORIA         FRZ RAIN  29  23  78 S8        30.07S WCI  21
LACON*         MIX PCPN  26  21  82 SE8       30.06F WCI  18
LINCOLN*       LGT RAIN  31  25  79 SE6       30.09F WCI  25
SPRINGFIELD    CLOUDY    29  22  75 SE6       30.06R WCI  23
TAYLORVILLE    CLOUDY    30  21  69 SE9       30.06F WCI  22
$$

ILZ033-039-045-046-055>057-062-063-031000-
EAST-CENTRAL ILLINOIS

CITY           SKY/WX    TMP DP  RH WIND       PRES   REMARKS
CHAMPAIGN      FRZ RAIN  28  22  78 SE12      30.10F WCI  18
DANVILLE*      CLOUDY    27  21  76 E10       30.06F WCI  17
RANTOUL*       CLOUDY    29  23  78 SE12      30.08F WCI  19
MATTOON        CLOUDY    30  18  60 SE13      30.06F WCI  20
PARIS*         MIX PCPN  29  22  75 SE5       30.10F WCI  24
$$

ILZ079-100>102-031000-
SOUTHWEST ILLINOIS

CITY           SKY/WX    TMP DP  RH WIND       PRES   REMARKS
ALTON          CLOUDY    32  21  64 SE7       30.05F WCI  25
BELLEVILLE     CLOUDY    31  25  77 SE5       30.04F WCI  27
CAHOKIA*       CLOUDY    32  25  75 SE6       30.04F WCI  26
SPARTA*        CLOUDY    31  25  76 S6        30.06F WCI  26
$$

ILZ064>066-069>071-074>076-080>082-084>086-088>090-092>094-031000-
SOUTH-CENTRAL ILLINOIS

CITY           SKY/WX    TMP DP  RH WIND       PRES   REMARKS
CARBONDALE     CLOUDY    33  24  69 SE6       30.06F WCI  28
CAIRO*         CLOUDY    38  28  67 CALM      30.10F
EFFINGHAM*     CLOUDY    31  19  59 E12       30.08F WCI  22
MARION         CLOUDY    36  25  64 SE7       30.07F WCI  30
MT. VERNON     CLOUDY    32  21  64 SE7       30.06F WCI  26
CENTRALIA*     CLOUDY    32  22  66 SE12      30.05F WCI  23
SALEM*         CLOUDY    33  22  63 SE8       30.05F WCI  27
METROPOLIS*    CLOUDY    37  27  68 SE6       30.09F WCI  32
$$

ILZ067-068-072-073-078-083-087-091-031000-
SOUTHEAST ILLINOIS

CITY           SKY/WX    TMP DP  RH WIND       PRES   REMARKS
LAWRENCEVILLE  CLOUDY    31  22  69 SE9       30.12F WCI  23
FLORA*         CLOUDY    31  24  72 SE12      30.08F WCI  22
FAIRFIELD*     CLOUDY    33  24  70 SE8       30.07F WCI  26
HARRISBURG*    CLOUDY    33  28  81 SE6       30.11F WCI  27
ROBINSON*      CLOUDY    30  22  70 SE12      30.11F WCI  21
CARMI*         CLOUDY    36  29  77 SE8       30.10F WCI  29
$$

ABBREVIATIONS USED IN REMARKS
   TC - TEMPERATURE IN CELSIUS
  WCI - WIND CHILL INDEX
   HX - HEAT INDEX
  VSB - VISIBILITY
$$



USA.gov is the U.S. government's official web portal to all federal, state and local government web resources and services.